Shawano, WI

3:39 PM CDT on September 27, 2016 (GMT -0500)
Shawano

Weather History for KEZS - October, 2013

Change the Weather History Date:

Tuesday, October 22, 2013

  Actual Average (KGRB) Record (KGRB)
Temperature  
Mean Temperature 38 °F 45 °F  
Max Temperature 47 °F 54 °F 82 °F (1947)
Min Temperature 31 °F 36 °F 19 °F (1969)
Degree Days  
Heating Degree Days 27 20  
Month to date heating degree days 361  
Since 1 July heating degree days 631  
Cooling Degree Days 0 0  
Month to date cooling degree days 0  
Year to date cooling degree days 395  
Moisture  
Dew Point 28 °F    
Average Humidity 66    
Maximum Humidity 83    
Minimum Humidity 48    
Precipitation  
Precipitation 0.00 in 0.08 in 0.96 in (1972)
Month to date precipitation 1.77  
Year to date precipitation 25.21  
Snow  
Snow 0.00 in 0.00 in T in (2003)
Month to date snowfall 0.1  
Since 1 July snowfall 0.1  
Since 1 September snowfall 0.1  
Snow Depth -    
Sea Level Pressure  
Sea Level Pressure 29.89 in    
Wind  
Wind Speed 7 mph (WNW)    
Max Wind Speed 14 mph    
Max Gust Speed 17 mph    
Visibility 10 miles    
Events      
T = Trace of Precipitation, MM = Missing Value Source: NWS Daily Summary

Daily Weather History Graph

Daily Weather History Graph

Search for Another Location

Airport or City:

Trip Planner

Search our weather history database for the weather conditions in past years. The results will help you decide how hot, cold, wet, or windy it might be!

Date:

Astronomy

Oct. 22, 2013 Rise Set
Actual Time 7:19 AM CDT 5:57 PM CDT
Civil Twilight 6:49 AM CDT 6:27 PM CDT
Nautical Twilight 6:15 AM CDT 7:01 PM CDT
Astronomical Twilight 5:41 AM CDT 7:35 PM CDT
Moon 8:31 PM CDT (10/22) 10:53 AM CDT (10/22)
Length of Visible Light 11h 37m
Length of Day
10h 38m
Waning Gibbous, 86% of the Moon is Illuminated
Oct 22
Waning Gibbous
Oct 26
Last Quarter
Nov 3
New
Nov 9
First Quarter
Nov 17
Full

Hourly Weather History & Observations

Time (CDT) Temp. Windchill Dew Point Humidity Pressure Visibility Wind Dir Wind Speed Gust Speed Precip Events Conditions
12:15 AM 35.6 °F 28.0 °F 24.4 °F 64% 29.80 in 10.0 mi WSW 10.4 mph 17.3 mph N/A   Overcast
12:35 AM 36.3 °F 29.5 °F 25.2 °F 64% 29.80 in 10.0 mi WSW 9.2 mph - N/A   Overcast
12:55 AM 36.5 °F 30.3 °F 25.3 °F 64% 29.80 in 10.0 mi West 8.1 mph 17.3 mph N/A   Overcast
1:15 AM 36.7 °F 29.4 °F 25.7 °F 64% 29.80 in 10.0 mi WSW 10.4 mph 16.1 mph N/A   Overcast
1:35 AM 37.0 °F 29.8 °F 26.2 °F 65% 29.81 in 10.0 mi West 10.4 mph - N/A   Overcast
1:55 AM 37.2 °F 30.0 °F 26.4 °F 65% 29.82 in 10.0 mi West 10.4 mph 17.3 mph N/A   Overcast
2:15 AM 36.5 °F 29.7 °F 26.6 °F 67% 29.82 in 10.0 mi West 9.2 mph 17.3 mph N/A   Mostly Cloudy
2:35 AM 36.7 °F 30.5 °F 27.1 °F 68% 29.83 in 10.0 mi WSW 8.1 mph - N/A   Overcast
2:55 AM 36.5 °F 29.7 °F 27.5 °F 70% 29.83 in 10.0 mi WSW 9.2 mph - N/A   Overcast
3:15 AM 36.5 °F 30.3 °F 27.5 °F 70% 29.83 in 10.0 mi WSW 8.1 mph - N/A   Mostly Cloudy
3:35 AM 36.0 °F 29.6 °F 27.5 °F 71% 29.83 in 10.0 mi West 8.1 mph - N/A   Scattered Clouds
3:55 AM 35.8 °F 30.1 °F 27.9 °F 73% 29.84 in 10.0 mi West 6.9 mph - N/A   Mostly Cloudy
4:15 AM 35.2 °F 28.8 °F 27.9 °F 74% 29.84 in 10.0 mi West 8.1 mph - N/A   Scattered Clouds
4:35 AM 34.9 °F 28.3 °F 27.9 °F 76% 29.84 in 10.0 mi WSW 8.1 mph - N/A   Clear
4:55 AM 35.1 °F 29.3 °F 28.2 °F 76% 29.85 in 10.0 mi West 6.9 mph - N/A   Clear
5:15 AM 34.7 °F 29.6 °F 28.2 °F 77% 29.85 in 10.0 mi WSW 5.8 mph - N/A   Scattered Clouds
5:35 AM 34.9 °F 28.3 °F 28.4 °F 77% 29.86 in 10.0 mi West 8.1 mph - N/A   Scattered Clouds
5:55 AM 34.7 °F 28.8 °F 28.4 °F 78% 29.86 in 10.0 mi West 6.9 mph - N/A   Clear
6:15 AM 34.0 °F 28.8 °F 28.4 °F 80% 29.87 in 10.0 mi WSW 5.8 mph - N/A   Scattered Clouds
6:35 AM 34.9 °F 30.8 °F 28.8 °F 78% 29.87 in 10.0 mi West 4.6 mph - N/A   Mostly Cloudy
6:55 AM 35.1 °F 29.3 °F 29.1 °F 79% 29.87 in 10.0 mi WSW 6.9 mph - N/A   Overcast
7:15 AM 34.7 °F 29.6 °F 29.3 °F 81% 29.88 in 10.0 mi West 5.8 mph - N/A   Scattered Clouds
7:35 AM 34.9 °F 29.9 °F 29.5 °F 81% 29.88 in 10.0 mi West 5.8 mph - N/A   Clear
7:55 AM 35.2 °F 31.2 °F 29.7 °F 80% 29.89 in 10.0 mi West 4.6 mph - N/A   Clear
8:15 AM 36.3 °F 32.5 °F 30.2 °F 78% 29.89 in 10.0 mi West 4.6 mph - N/A   Scattered Clouds
8:35 AM 36.9 °F 32.2 °F 30.6 °F 78% 29.89 in 10.0 mi West 5.8 mph - N/A   Scattered Clouds
8:55 AM 38.1 °F 33.7 °F 31.1 °F 76% 29.89 in 10.0 mi West 5.8 mph - N/A   Clear
9:15 AM 39.4 °F 33.8 °F 31.8 °F 74% 29.90 in 10.0 mi WNW 8.1 mph - N/A   Clear
9:35 AM 40.1 °F 34.7 °F 31.3 °F 71% 29.90 in 10.0 mi WNW 8.1 mph - N/A   Scattered Clouds
9:55 AM 41.2 °F 36.0 °F 31.5 °F 68% 29.90 in 10.0 mi NW 8.1 mph - N/A   Scattered Clouds
10:15 AM 42.3 °F 36.8 °F 31.1 °F 65% 29.90 in 10.0 mi NW 9.2 mph - N/A   Scattered Clouds
10:35 AM 42.4 °F 36.5 °F 30.7 °F 63% 29.90 in 10.0 mi WNW 10.4 mph 16.1 mph N/A   Mostly Cloudy
10:55 AM 43.7 °F 39.7 °F 30.2 °F 59% 29.90 in 10.0 mi NNW 6.9 mph - N/A   Mostly Cloudy
11:15 AM 43.3 °F 38.1 °F 30.0 °F 59% 29.90 in 10.0 mi NW 9.2 mph - N/A   Mostly Cloudy
11:35 AM 43.9 °F 38.8 °F 29.7 °F 57% 29.90 in 10.0 mi WNW 9.2 mph - N/A   Overcast
11:55 AM 45.7 °F 41.5 °F 28.8 °F 52% 29.90 in 10.0 mi North 8.1 mph - N/A   Scattered Clouds
12:15 PM 44.2 °F 40.3 °F 27.9 °F 53% 29.90 in 10.0 mi NNW 6.9 mph 17.3 mph N/A   Mostly Cloudy
12:35 PM 45.1 °F 39.9 °F 28.4 °F 52% 29.90 in 10.0 mi WNW 10.4 mph 16.1 mph N/A   Mostly Cloudy
12:55 PM 45.9 °F 41.7 °F 28.6 °F 51% 29.89 in 10.0 mi NNW 8.1 mph - N/A   Mostly Cloudy
1:15 PM 44.6 °F 39.7 °F 26.8 °F 50% 29.89 in 10.0 mi NW 9.2 mph 16.1 mph N/A   Overcast
1:35 PM 45.5 °F 39.2 °F 27.0 °F 48% 29.89 in 10.0 mi NW 13.8 mph - N/A   Overcast
1:55 PM 45.0 °F 41.2 °F 26.1 °F 48% 29.88 in 10.0 mi NW 6.9 mph - N/A   Overcast
2:15 PM 44.6 °F 40.2 °F 26.6 °F 49% 29.89 in 10.0 mi WNW 8.1 mph - N/A   Overcast
2:35 PM 44.8 °F 41.0 °F 26.6 °F 49% 29.89 in 10.0 mi WNW 6.9 mph - N/A   Overcast
2:55 PM 44.6 °F 40.7 °F 27.7 °F 52% 29.89 in 10.0 mi WNW 6.9 mph - N/A   Overcast
3:15 PM 44.2 °F 39.7 °F 27.3 °F 51% 29.89 in 10.0 mi WNW 8.1 mph - N/A   Overcast
3:35 PM 44.1 °F 40.1 °F 27.5 °F 52% 29.89 in 10.0 mi WNW 6.9 mph - N/A   Overcast
3:55 PM 43.9 °F 39.3 °F 26.8 °F 51% 29.90 in 10.0 mi NW 8.1 mph - N/A   Overcast
4:15 PM 43.7 °F 39.7 °F 26.8 °F 51% 29.90 in 10.0 mi NNW 6.9 mph - N/A   Overcast
4:35 PM 43.9 °F 41.3 °F 26.6 °F 51% 29.91 in 10.0 mi NW 4.6 mph - N/A   Overcast
4:55 PM 43.7 °F 40.3 °F 26.8 °F 51% 29.91 in 10.0 mi NW 5.8 mph - N/A   Overcast
5:15 PM 43.2 °F 41.5 °F 26.8 °F 52% 29.91 in 10.0 mi WNW 3.5 mph - N/A   Overcast
5:35 PM 42.8 °F - 27.7 °F 55% 29.91 in 10.0 mi Calm Calm - N/A   Overcast
5:55 PM 42.1 °F - 28.4 °F 58% 29.92 in 10.0 mi Calm Calm - N/A   Overcast
6:15 PM 41.7 °F - 28.2 °F 59% 29.91 in 10.0 mi Calm Calm - N/A   Overcast
6:35 PM 40.6 °F - 28.0 °F 61% 29.92 in 10.0 mi Calm Calm - N/A   Overcast
6:55 PM 40.6 °F 38.6 °F 28.0 °F 61% 29.92 in 10.0 mi NW 3.5 mph - N/A   Overcast
7:15 PM 41.0 °F 36.4 °F 27.3 °F 58% 29.93 in 10.0 mi NW 6.9 mph - N/A   Overcast
7:35 PM 39.9 °F 35.1 °F 26.6 °F 59% 29.93 in 10.0 mi NW 6.9 mph - N/A   Overcast
7:55 PM 38.3 °F 33.2 °F 27.0 °F 64% 29.94 in 10.0 mi NW 6.9 mph - N/A   Mostly Cloudy
8:15 PM 37.6 °F 34.0 °F 26.8 °F 65% 29.94 in 10.0 mi NW 4.6 mph - N/A   Mostly Cloudy
8:35 PM 36.3 °F 33.7 °F 27.1 °F 69% 29.94 in 10.0 mi NW 3.5 mph - N/A   Scattered Clouds
8:55 PM 36.1 °F - 27.1 °F 70% 29.95 in 10.0 mi Calm Calm - N/A   Mostly Cloudy
9:35 PM 35.8 °F - 27.9 °F 73% 29.95 in 10.0 mi Calm Calm - N/A   Overcast
10:15 PM 32.4 °F - 27.5 °F 82% 29.95 in 10.0 mi Calm Calm - N/A   Mostly Cloudy
10:35 PM 32.9 °F 29.8 °F 28.2 °F 83% 29.95 in 10.0 mi West 3.5 mph - N/A   Overcast
10:55 PM 33.3 °F - 27.5 °F 79% 29.95 in 10.0 mi Calm Calm - N/A   Overcast
11:15 PM 32.5 °F 29.3 °F 27.3 °F 81% 29.94 in 10.0 mi West 3.5 mph - N/A   Mostly Cloudy
11:35 PM 31.8 °F 28.5 °F 27.0 °F 82% 29.94 in 10.0 mi West 3.5 mph - N/A   Clear
11:55 PM 31.6 °F 27.0 °F 26.8 °F 82% 29.94 in 10.0 mi West 4.6 mph - N/A   Clear